Terug naar catalogus

CZ-6A DEB

ActiefPO
NORAD 60770·DEBRIS·🇨🇳 China

Gelanceerd Aug 6, 2024 vanaf Taiyuan Satellite Launch Center

Loading…

Volgende Passages (komende 24 uur)

TLE

VersSource: Space-Track

Epoch: Sep 14, 2026, 18:19 UTC

1 60770U 24140EV  26257.76349906  .00000400  00000-0  12802-3 0  9997
2 60770  89.0164 264.0306 0035164   0.1423 359.9781 14.37424649107879

Volg CZ-6A DEB in realtime met AllMySat

Download on the App Store